TimeMST,TemperatureF,Dew PointF,Humidity,Sea Level PressureIn,VisibilityMPH,Wind Direction,Wind SpeedMPH,Gust SpeedMPH,PrecipitationIn,Events,Conditions,WindDirDegrees,DateUTC
12:53 AM,36.0,21.0,55,30.30,10.0,East,8.1,-,N/A,,Clear,90,2012-11-16 07:53:00
1:53 AM,36.0,21.0,55,30.28,10.0,East,9.2,-,N/A,,Clear,100,2012-11-16 08:53:00
2:53 AM,37.0,21.9,54,30.28,10.0,East,5.8,-,N/A,,Clear,100,2012-11-16 09:53:00
3:53 AM,36.0,21.9,57,30.26,10.0,ESE,8.1,-,N/A,,Clear,110,2012-11-16 10:53:00
4:53 AM,37.9,21.9,53,30.26,10.0,ESE,10.4,-,N/A,,Clear,110,2012-11-16 11:53:00
5:53 AM,37.0,21.9,54,30.27,10.0,ESE,9.2,-,N/A,,Clear,120,2012-11-16 12:53:00
6:53 AM,36.0,21.9,57,30.29,10.0,ESE,4.6,-,N/A,,Clear,120,2012-11-16 13:53:00
7:53 AM,37.9,21.9,53,30.30,10.0,East,8.1,-,N/A,,Overcast,100,2012-11-16 14:53:00
8:53 AM,41.0,21.9,47,30.32,10.0,SE,5.8,-,N/A,,Overcast,130,2012-11-16 15:53:00
9:53 AM,46.0,21.0,37,30.30,10.0,ESE,6.9,-,N/A,,Scattered Clouds,120,2012-11-16 16:53:00
10:53 AM,50.0,18.0,28,30.27,10.0,East,10.4,-,N/A,,Overcast,90,2012-11-16 17:53:00
11:53 AM,54.0,19.0,25,30.22,10.0,East,10.4,-,N/A,,Scattered Clouds,80,2012-11-16 18:53:00
12:53 PM,59.0,19.0,21,30.17,10.0,Variable,5.8,-,N/A,,Clear,0,2012-11-16 19:53:00
1:53 PM,59.0,19.0,21,30.14,10.0,East,8.1,-,N/A,,Overcast,90,2012-11-16 20:53:00
2:53 PM,61.0,19.0,20,30.12,10.0,East,4.6,-,N/A,,Partly Cloudy,100,2012-11-16 21:53:00
3:53 PM,63.0,19.0,18,30.10,10.0,Variable,5.8,-,N/A,,Overcast,0,2012-11-16 22:53:00
4:53 PM,57.9,19.0,22,30.11,10.0,NE,6.9,-,N/A,,Overcast,50,2012-11-16 23:53:00
5:53 PM,53.1,19.9,27,30.13,10.0,NNE,4.6,-,N/A,,Overcast,30,2012-11-17 00:53:00
6:53 PM,48.9,21.0,33,30.16,10.0,NNE,5.8,-,N/A,,Mostly Cloudy,30,2012-11-17 01:53:00
7:53 PM,46.0,19.9,35,30.17,10.0,NNE,6.9,-,N/A,,Partly Cloudy,30,2012-11-17 02:53:00
8:53 PM,45.0,19.9,37,30.17,10.0,East,6.9,-,N/A,,Partly Cloudy,80,2012-11-17 03:53:00
9:53 PM,44.1,19.9,38,30.17,10.0,ENE,6.9,-,N/A,,Partly Cloudy,70,2012-11-17 04:53:00
10:53 PM,41.0,21.0,45,30.17,10.0,East,6.9,-,N/A,,Clear,80,2012-11-17 05:53:00
11:53 PM,39.0,21.0,49,30.18,10.0,East,6.9,-,N/A,,Clear,90,2012-11-17 06:53:00